{"data":{"norad_id":57168,"intl_designator":"2023-091C","name":"2023-091C","alt_names":[],"object_type":"PAYLOAD","status":"ACTIVE","operator":null,"country":"CIS","launch_date":"2023-06-27","launch_site_code":"VOSTO","launch_vehicle":null,"mission":null,"orbit_class":"UNKNOWN","rcs_meters":null,"size_class":null,"mass_kg":null,"dimensions":null,"purposes":[],"wikipedia_slug":null,"has_3d_model":false,"image_url":null,"decayed_at":null,"tle_current":{"epoch":"2026-09-21T22:24:25.962048Z","epoch_age_seconds":79052,"freshness":"FRESH","line1":"1 57168U 23091C   26264.93363382  .00005892  00000+0  21835-3 0  9994","line2":"2 57168  97.4930 327.7437 0012245 122.3520 237.8907 15.27953264179022","mean_motion":15.27953264,"eccentricity":0.0012245,"inclination_deg":97.493,"raan_deg":327.7437,"arg_perigee_deg":122.352,"mean_anomaly_deg":237.8907,"bstar":0.00021835,"rev_number":17902,"period_min":94.243720271277,"perigee_km":473.5314828362,"apogee_km":490.33179092792,"semimajor_km":6860.0686368821,"source":"CELESTRAK","updated_at":"2026-09-22T09:00:26.072483Z"}}}